ATLAS 5 CENTAUR DEB, 44647

Orbit data source: Space-Track

ATLAS 5 CENTAUR DEB, 44647 is space debris in HEO originally from a launch on Wed, 17 Oct 2018 UTC launched from the Air Force Eastern Test Range (AFETR). Debris objects in space refer to the collection of defunct objects orbiting the Earth. Examples of debris include non-operational satellites, rocket bodies, and fragments generated from explosions, collisions, or faulty payload assembly.

Loading next visibility...
Identifier
44647, 2018-079H
Orbit
HEO
Country
Flag of USUS
Related business
Flag of USUnited Launch Alliance/Lockheed Martin (US)
Manufacturer
ULA Decatur
Mission
Spacecraft
Bus & Motor
Unknown
Mass
Unknown
Launch date (UTC)
2018-10-17 (8 years ago)
Launch vehicle
Unknown
Launch site
Air Force Eastern Test Range (AFETR)
Object type
Payload
Rocket body
Debris
Shape & HBR
Unknown shape, 1.1 m
Radar Cross Section
Medium (>0.1 m² and <1 m²)

Expand to show TLE details & history
Last TLE update: 1 week ago

TLE from 1 week ago
0 ATLAS 5 CENTAUR DEB
1 44647U 18079H   26231.15163931 -.00000137  00000-0  00000-0 0  9995
2 44647  13.5253  15.0626 4631497 356.1091   1.1558  1.88053797 53764
Epoch: 2026-08-19T03:38Z
TLE epoch observation values (Epoch: 2026-08-19T03:38:21.636Z)
Latitude
0.00001°
Longitude
-7.0204°
Altitude
8,517.335 km
Speed
6.256 km/s
True Right ascension
01h 00m 18s
True Declination
0° 00' 00"
Sunlit
Object was in daylight at epoch
Visualization orbit readout
Latitude
Unknown
Longitude
Unknown
Altitude
Unknown
Speed
Unknown
Apparent Right ascension
Unknown
Apparent Declination
Unknown
Sunlit
N/A
Visualization observer readout
Local Sidereal Time
09:23:43
Azimuth
Unknown
Elevation
Unknown
Doppler factor
Unknown
Orbital elements
Apogee altitude
34,191.608 km
Perigee altitude
8,507.476 km
Semi-major axis
27,727.679 km
Eccentricity
0.46315
Inclination
13.5253°
RAAN
15.0626°
Arg. of periapsis
356.1091°
True anomaly
3.5528°
Mean anomaly
1.1558°
Eccentric anomaly
2.15249°
Mean motion
0.47008 °/min
Orbital period
765.83 mins
BSTAR
0
Loading maneuver chart data...
Computing Atmospheric mass density...

Documentation

Showing up to 5 results
|